Back to catalog

COSMOS 1275 DEB

AlivePO
NORAD 42105·DEBRIS·🇷🇺 Russia

Launched Jun 4, 1981 from Plesetsk Cosmodrome

Loading…

Next Passes (next 24 hours)

TLE

FreshSource: Space-Track

Epoch: Sep 11, 2026, 23:32 UTC

1 42105U 81053PR  26254.98068815  .00000762  00000-0  86160-3 0  9992
2 42105  82.9780 330.7275 0175773 164.6139 316.7844 13.62897996276698

Track COSMOS 1275 DEB in real time with AllMySat

Download on the App Store